User: anonymous   Login
Location: Unspecified
(0.0000°N, 0.0000°E)
Time: 18:51:52
(UTC+00:00)
Language:

IDEFIX/ARIANE 42P - Orbit

View from above orbital plane
View from above orbital plane
View from above satellite
View from above satellite

Ground track
Ground track

The orbit data is extracted from the following two-line orbital elements,

1 27422U 02021B   17083.94116842 -.00000022 +00000-0 +70367-5 0  9999
2 27422 098.2297 088.8758 0013383 123.3666 236.8800 14.29251660776536
Epoch (UTC): 24 March 2017 22:35:16
Eccentricity: 0.0013383
inclination: 98.2297°
perigee height: 784 km
apogee height: 804 km
right ascension of ascending node: 88.8758°
argument of perigee: 123.3666°
revolutions per day: 14.29251660
mean anomaly at epoch: 236.8800°
orbit number at epoch: 77653

The dashed part of the orbit path shows where the satellite is in the earth's shadow,  

DLR